[[{"header":{"parameterUnit":"m.s-1","parameterCategory":1,"la1":30.2991,"la2":30.254,"lo1":-89.0895,"lo2":-89.0444,"dy":0.0017,"dx":0.0017,"nx":28,"ny":28,"refTime":"2025-03-10T09:00:00:Z","depth":0,"parameterNumber":2,"parameterNumberName":"U-component_of_WINDS"},"data":[0,0,0,0,0,0,0,0,0,0,0,0,0,0,0,0,0,0,0,0,0,0,0,0,0,0,0,0,0,0,0,0,0,0,0,0,0,0,0,0,0,0,0,0,0,0,0,0,0,0,0,0,0,0,0,0,0,0,6.7505,6.7507,0,6.7682,6.7684,6.7686,6.7633,6.7629,6.7626,6.7622,6.7806,6.7814,6.7823,0,0,0,0,0,0,0,0,0,0,0,0,0,6.7124,6.7131,6.7505,6.7507,6.7509,6.7682,6.7685,6.7687,6.7634,6.7629,6.7625,6.762,6.7804,6.7813,6.7823,0,0,0,0,0,0,0,0,0,0,0,0,0,6.7294,6.7134,6.7505,6.7504,6.7505,6.7682,6.7685,6.7688,6.7635,6.7629,6.7623,6.7618,6.78,6.7812,6.7825,6.8014,0,0,6.7863,6.7869,0,0,0,0,0,0,0,0,6.7285,6.7308,6.7501,6.7504,6.7506,6.763,6.7618,6.7797,6.7636,6.7586,6.7622,6.7616,6.7752,6.7768,6.7814,6.8022,6.803,6.7864,6.7872,6.7877,6.7881,0,0,0,0,0,0,0,6.7273,6.7301,6.7575,6.7504,6.7507,6.7496,6.7514,6.7652,6.7698,6.759,6.7586,6.7608,6.7752,6.7802,6.7818,6.8033,6.7864,6.7875,6.7883,6.7888,6.8408,6.8414,0,0,0,0,0,0,6.7259,6.7291,6.757,6.758,6.7379,6.7507,6.7527,6.7596,6.7696,6.7706,6.7612,6.7605,6.7783,6.7803,6.7824,6.8054,6.7877,6.7889,6.7896,6.8402,6.841,6.8417,0,0,0,0,0,0,6.7251,6.7285,6.7562,6.7435,6.7469,6.7519,6.7597,6.7602,6.7652,6.7714,6.7722,6.7654,6.778,6.7807,6.7968,6.8059,6.7895,6.7906,6.8395,6.8405,6.8413,6.8513,0,0,0,0,0,0,6.7241,6.7282,6.7353,6.7437,6.7476,6.7702,6.7603,6.761,6.7673,6.7665,6.7755,6.7765,6.7777,6.7949,6.798,6.8074,6.7916,6.8387,6.8399,6.841,6.8502,6.8525,6.8545,0,0,0,0,0,6.7227,6.7374,6.7357,6.7391,6.7566,6.7707,6.773,6.7741,6.7681,6.7754,6.7794,6.7762,6.8044,6.7966,6.8,6.8099,6.8381,6.8396,6.8409,6.8492,6.852,6.8544,0,0,0,0,0,0,6.73,6.7385,6.7367,6.7545,6.7619,6.7698,6.7789,6.777,6.7863,6.7851,6.7862,6.7883,6.8048,6.809,6.8001,6.8289,6.8204,6.8226,6.8255,6.8283,6.8304,6.829,6.7926,0,0,0,0,0,6.7337,6.7443,6.7512,6.7663,6.7701,6.7739,6.7801,6.7803,6.7881,6.7912,6.7964,6.8041,6.8147,6.8217,6.8318,6.8508,6.8528,6.8593,6.8614,6.8632,6.865,6.8756,6.8787,6.8463,6.8463,6.8463,0,0,6.7414,6.7474,6.754,6.7679,6.7737,6.7848,6.7766,6.7886,6.797,6.793,6.8086,6.8127,6.8214,6.8391,6.8471,6.8431,6.8744,6.865,6.8663,6.8673,6.8774,6.8805,6.8832,6.8473,6.8471,6.847,0,0,6.7612,6.7667,6.7799,6.7859,6.7948,6.7972,6.8005,6.8087,6.8113,6.8269,6.8242,6.8342,6.8525,6.8589,6.8645,6.887,6.8845,6.8903,6.9014,6.9117,6.9143,6.9166,6.9248,6.9277,6.8921,6.8922,6.8922,0,6.7696,6.7862,6.787,6.7994,6.8057,6.8027,6.8162,6.822,6.8338,6.8383,6.8335,6.8565,6.8622,6.8814,6.8869,6.8915,6.8954,6.8892,6.9138,6.9161,6.9182,6.9261,6.9291,6.8928,6.8927,6.8927,6.8926,0,6.7963,6.8079,6.8175,6.8289,6.8363,6.8492,6.8522,6.8596,6.8593,6.8623,6.8784,6.8851,6.8966,6.9012,6.901,6.9206,6.9178,6.9135,6.905,6.922,6.9294,6.9324,6.8937,6.8935,6.8933,6.8932,0,0,6.821,6.8329,6.8364,6.8417,6.8513,6.8604,6.8733,6.8845,6.8909,6.8992,6.9102,6.9258,6.9219,6.9283,6.9288,6.9379,6.9555,6.9325,6.9327,6.9366,6.9778,6.981,6.9845,6.9539,6.9545,6.955,6.9771,0,6.8417,6.8643,6.8655,6.8861,6.8969,6.8943,6.9055,6.9128,6.9161,6.9258,6.9295,6.9406,6.9345,6.9384,6.9473,6.9515,6.9638,6.9499,6.9643,6.9648,6.9623,6.9883,6.9917,7.0123,6.9799,6.9804,6.9808,0,6.8688,6.8779,6.8996,6.9079,6.9125,6.9226,6.9331,6.9424,6.9507,6.9525,6.9598,6.9591,6.9725,6.9635,6.9822,6.9727,6.9787,6.9817,6.9825,6.984,6.9739,6.9906,7.0188,7.022,6.9853,6.985,6.9846,0,6.8849,6.9026,6.9179,6.9224,6.9325,6.9397,6.9442,6.9519,6.9587,6.968,6.9724,6.9831,6.9891,6.9975,6.9998,6.993,7.0185,7.0096,7.0205,7.0204,7.026,7.0256,7.0557,7.0297,7.0296,7.0296,7.0295,0,6.9079,6.9213,6.9253,6.9347,6.9497,6.9511,6.9659,6.97,6.977,6.9873,6.9857,6.9954,6.9978,7.0081,7.01,7.0252,7.0279,7.0298,7.0302,7.03,7.0298,7.034,7.0327,7.0304,7.0302,7.0301,7.0299,0,6.9284,6.9316,6.9481,6.9563,6.9587,6.9694,6.9765,6.9857,6.9888,7.0019,7.005,7.01,7.022,7.0251,7.0395,7.0408,7.0588,7.0578,7.056,7.056,7.0667,7.0657,7.1007,7.1054,7.0762,7.0764,7.0767,0,6.9429,6.9532,6.9625,6.9693,6.9741,6.985,6.992,6.9938,7.0011,7.0115,7.0194,7.0312,7.0408,7.0602,7.0651,7.0762,7.0755,7.087,7.0771,7.0767,7.0758,7.0752,7.0764,7.0888,7.0892,7.0894,7.0896,0,6.9684,6.9695,6.9795,6.9902,6.9985,7.0069,7.0151,7.0207,7.0238,7.0321,7.0443,7.0518,7.0665,7.0783,7.0895,7.0943,7.0927,7.0927,7.0958,7.0958,7.0944,7.0955,7.0612,7.0919,7.0916,7.0915,7.0914,7.0913,6.9865,6.9956,7.0036,7.0149,7.0212,7.0288,7.0379,7.0422,7.0524,7.0645,7.065,7.0784,7.0867,7.1015,7.107,7.1176,7.1142,7.1186,7.1198,7.1209,7.1219,7.0926,7.1196,7.1196,7.1195,7.1195,7.1194,0,7.0121,7.0171,7.0275,7.0389,7.0478,7.0453,7.0542,7.0619,7.0737,7.0815,7.0909,7.1052,7.1167,7.1226,7.1341,7.1415,7.1411,7.1445,7.144,7.1452,7.1242,7.1205,7.1447,7.1447,7.1447,7.1447,7.1447,7.1447,7.0264,7.0417,7.0438,7.0623,7.0673,7.0803,7.0857,7.0928,7.0991,7.115,7.1246,7.1283,7.1355,7.1475,7.1581,7.1596,7.1639,7.1679,7.1689,7.1492,7.1467,7.1442,7.1407,7.1688,7.1688,7.189,7.1892,7.1894]},{"header":{"parameterUnit":"m.s-1","parameterCategory":1,"la1":30.2991,"la2":30.254,"lo1":-89.0895,"lo2":-89.0444,"dy":0.0017,"dx":0.0017,"nx":28,"ny":28,"refTime":"2025-03-10T09:00:00:Z","depth":0,"parameterNumber":3,"parameterNumberName":"V-component_of_WINDS"},"data":[0,0,0,0,0,0,0,0,0,0,0,0,0,0,0,0,0,0,0,0,0,0,0,0,0,0,0,0,0,0,0,0,0,0,0,0,0,0,0,0,0,0,0,0,0,0,0,0,0,0,0,0,0,0,0,0,0,0,-3.8917,-3.8918,0,-3.8978,-3.8979,-3.898,-3.8954,-3.8953,-3.8951,-3.895,-3.9012,-3.9015,-3.9018,0,0,0,0,0,0,0,0,0,0,0,0,0,-3.8778,-3.8781,-3.8917,-3.8918,-3.8919,-3.8978,-3.8979,-3.898,-3.8954,-3.8953,-3.8951,-3.8949,-3.9011,-3.9014,-3.9018,0,0,0,0,0,0,0,0,0,0,0,0,0,-3.8839,-3.8782,-3.8917,-3.8913,-3.8913,-3.8978,-3.8979,-3.898,-3.8955,-3.8953,-3.895,-3.8948,-3.901,-3.9014,-3.9019,-3.9091,0,0,-3.9032,-3.9034,0,0,0,0,0,0,0,0,-3.8836,-3.8844,-3.8913,-3.8913,-3.8914,-3.8956,-3.8953,-3.9017,-3.8955,-3.8939,-3.895,-3.8947,-3.8995,-3.9001,-3.9017,-3.9093,-3.9096,-3.9033,-3.9036,-3.9038,-3.9039,0,0,0,0,0,0,0,-3.8831,-3.8841,-3.8941,-3.8914,-3.8915,-3.8908,-3.8915,-3.8965,-3.8979,-3.894,-3.8939,-3.8946,-3.8995,-3.9013,-3.9018,-3.9097,-3.9033,-3.9037,-3.904,-3.9041,-3.9237,-3.9239,0,0,0,0,0,0,-3.8827,-3.8838,-3.8939,-3.8943,-3.8869,-3.8913,-3.892,-3.8945,-3.8978,-3.8981,-3.8948,-3.8945,-3.9006,-3.9013,-3.902,-3.9108,-3.9037,-3.9042,-3.9044,-3.9235,-3.9238,-3.924,0,0,0,0,0,0,-3.8824,-3.8836,-3.8937,-3.889,-3.8902,-3.8917,-3.8946,-3.8947,-3.8965,-3.8984,-3.8986,-3.8964,-3.9005,-3.9014,-3.9074,-3.9109,-3.9044,-3.9048,-3.9232,-3.9235,-3.9239,-3.9282,0,0,0,0,0,0,-3.882,-3.8836,-3.8863,-3.8891,-3.8905,-3.8989,-3.8948,-3.895,-3.8973,-3.8969,-3.8999,-3.9002,-3.9004,-3.9067,-3.9078,-3.9114,-3.9051,-3.9228,-3.9233,-3.9238,-3.9278,-3.9287,-3.9295,0,0,0,0,0,-3.8816,-3.8872,-3.8864,-3.8877,-3.894,-3.8991,-3.8999,-3.9,-3.8976,-3.9004,-3.9016,-3.9001,-3.9104,-3.9073,-3.9086,-3.9124,-3.9226,-3.9232,-3.9237,-3.9274,-3.9285,-3.9295,0,0,0,0,0,0,-3.8847,-3.8876,-3.8867,-3.8935,-3.8961,-3.8987,-3.9022,-3.9012,-3.9045,-3.904,-3.904,-3.9047,-3.9109,-3.9122,-3.9088,-3.9196,-3.9161,-3.917,-3.9185,-3.9196,-3.9204,-3.92,-3.9055,0,0,0,0,0,-3.8862,-3.8902,-3.8924,-3.8982,-3.8995,-3.9007,-3.9029,-3.9028,-3.9054,-3.9065,-3.9082,-3.9108,-3.9147,-3.9172,-3.9208,-3.928,-3.9286,-3.9312,-3.9321,-3.9328,-3.9335,-3.9375,-3.9387,-3.9259,-3.9258,-3.9258,0,0,-3.8893,-3.8914,-3.8939,-3.8989,-3.9009,-3.905,-3.9016,-3.9061,-3.9091,-3.9072,-3.913,-3.9143,-3.9173,-3.9239,-3.9269,-3.9252,-3.9372,-3.9335,-3.934,-3.9344,-3.9382,-3.9394,-3.9405,-3.9262,-3.9262,-3.9261,0,0,-3.8971,-3.899,-3.9041,-3.9062,-3.9093,-3.91,-3.9112,-3.914,-3.9148,-3.9206,-3.9193,-3.923,-3.9295,-3.9318,-3.9337,-3.9425,-3.9413,-3.9437,-3.9482,-3.9521,-3.9531,-3.954,-3.9572,-3.9584,-3.9444,-3.9444,-3.9445,0,-3.9006,-3.9068,-3.9068,-3.9114,-3.9137,-3.9122,-3.9174,-3.9194,-3.9235,-3.9251,-3.9232,-3.9315,-3.9334,-3.9406,-3.9427,-3.9444,-3.9458,-3.9434,-3.953,-3.9539,-3.9547,-3.9578,-3.959,-3.9447,-3.9447,-3.9447,-3.9446,0,-3.9109,-3.9152,-3.9189,-3.923,-3.9257,-3.9306,-3.9314,-3.9341,-3.9338,-3.9347,-3.9407,-3.9429,-3.947,-3.9487,-3.9484,-3.9559,-3.9548,-3.9529,-3.9494,-3.9562,-3.9591,-3.9603,-3.9451,-3.945,-3.9449,-3.9449,0,0,-3.9208,-3.9249,-3.9263,-3.9282,-3.9316,-3.9349,-3.9397,-3.9438,-3.9462,-3.9491,-3.9532,-3.9589,-3.9572,-3.9595,-3.9594,-3.9628,-3.9698,-3.9606,-3.9606,-3.9623,-3.9783,-3.9797,-3.981,-3.969,-3.9692,-3.9694,-3.978,0,-3.9289,-3.9374,-3.9376,-3.9454,-3.9494,-3.9481,-3.9523,-3.9549,-3.9559,-3.9595,-3.9607,-3.9647,-3.9622,-3.9636,-3.9669,-3.9682,-3.973,-3.9676,-3.9728,-3.973,-3.9722,-3.9825,-3.984,-3.992,-3.9792,-3.9793,-3.9795,0,-3.9394,-3.9428,-3.951,-3.9539,-3.9556,-3.9594,-3.9632,-3.9666,-3.9695,-3.97,-3.9727,-3.9721,-3.9771,-3.9735,-3.9804,-3.9768,-3.9789,-3.9799,-3.9802,-3.9807,-3.9767,-3.9833,-3.9946,-3.9958,-3.9812,-3.9811,-3.981,0,-3.9459,-3.9524,-3.9582,-3.9599,-3.9634,-3.9661,-3.9677,-3.9704,-3.9729,-3.9762,-3.9778,-3.9817,-3.9838,-3.9868,-3.9874,-3.9847,-3.9944,-3.9907,-3.995,-3.995,-3.9971,-3.9969,-4.0089,-3.9984,-3.9984,-3.9984,-3.9983,0,-3.9549,-3.96,-3.9612,-3.9648,-3.9705,-3.9707,-3.9763,-3.9777,-3.9801,-3.984,-3.9831,-3.9867,-3.9872,-3.991,-3.9914,-3.9972,-3.9981,-3.9987,-3.9988,-3.9988,-3.9988,-4.0002,-3.9997,-3.9987,-3.9986,-3.9986,-3.9985,0,-3.9631,-3.9641,-3.9703,-3.9732,-3.974,-3.9781,-3.9806,-3.984,-3.985,-3.9899,-3.991,-3.9926,-3.997,-3.9979,-4.003,-4.0033,-4.0102,-4.0097,-4.0092,-4.0092,-4.0134,-4.013,-4.0267,-4.0286,-4.0169,-4.017,-4.0171,0,-3.9688,-3.9727,-3.976,-3.9786,-3.9803,-3.9844,-3.9869,-3.9873,-3.99,-3.9937,-3.9967,-4.001,-4.0045,-4.0116,-4.0132,-4.0172,-4.0168,-4.0214,-4.0174,-4.0174,-4.017,-4.0168,-4.0172,-4.0221,-4.0222,-4.0223,-4.0224,0,-3.9789,-3.9792,-3.9829,-3.9869,-3.9899,-3.993,-3.996,-3.9981,-3.9989,-4.002,-4.0065,-4.0093,-4.0146,-4.0189,-4.023,-4.0246,-4.0237,-4.0237,-4.0249,-4.025,-4.0246,-4.0249,-4.0113,-4.0234,-4.0233,-4.0232,-4.0231,-4.0231,-3.9861,-3.9895,-3.9924,-3.9966,-3.9989,-4.0017,-4.0051,-4.0066,-4.0103,-4.0147,-4.0148,-4.0197,-4.0226,-4.028,-4.0299,-4.0338,-4.0324,-4.0341,-4.0345,-4.035,-4.0354,-4.0239,-4.0345,-4.0345,-4.0345,-4.0345,-4.0344,0,-3.9962,-3.998,-4.0018,-4.006,-4.0094,-4.0082,-4.0115,-4.0143,-4.0187,-4.0215,-4.025,-4.0303,-4.0345,-4.0365,-4.0406,-4.0434,-4.0431,-4.0445,-4.0443,-4.0447,-4.0364,-4.035,-4.0447,-4.0447,-4.0447,-4.0447,-4.0447,-4.0447,-4.0018,-4.0076,-4.0083,-4.0153,-4.017,-4.0219,-4.0239,-4.0265,-4.0288,-4.0347,-4.0382,-4.0395,-4.042,-4.0463,-4.0502,-4.0507,-4.0523,-4.0539,-4.0542,-4.0464,-4.0453,-4.0443,-4.043,-4.0542,-4.0542,-4.0622,-4.0623,-4.0623]}]]